Baker, MT

1:38 PM MDT on October 18, 2017 (GMT -0600)
Baker Municipal

Weather History for KBHK - July, 2013

Change the Weather History Date:

Thursday, July 25, 2013

  Actual Average Record
Temperature  
Mean Temperature 64 °F -  
Max Temperature 75 °F 86 °F 97 °F (2003)
Min Temperature 55 °F 56 °F 50 °F (2004)
Degree Days  
Heating Degree Days 1    
Growing Degree Days 14 (Base 50)    
Moisture  
Dew Point 50 °F    
Average Humidity 59    
Maximum Humidity 84    
Minimum Humidity 41    
Precipitation  
Precipitation 0.04 in - - ()
Sea Level Pressure  
Sea Level Pressure 30.11 in    
Wind  
Wind Speed 12 mph (North)    
Max Wind Speed 22 mph    
Max Gust Speed 24 mph    
Visibility 10 miles    
Events Rain    
Averages and records for this station are not official NWS values.
T = Trace of Precipitation, MM = Missing Value Source: NWS Daily Summary

Daily Weather History Graph

Daily Weather History Graph

Search for Another Location

Airport or City:

Trip Planner

Search our weather history database for the weather conditions in past years. The results will help you decide how hot, cold, wet, or windy it might be!

Date:

Astronomy

Jul. 25, 2013 Rise Set
Actual Time 5:30 AM MDT 8:35 PM MDT
Civil Twilight 4:54 AM MDT 9:11 PM MDT
Nautical Twilight 4:08 AM MDT 9:57 PM MDT
Astronomical Twilight 3:11 AM MDT 10:53 PM MDT
Moon 9:59 PM MDT (7/25) 9:18 AM MDT (7/25)
Length of Visible Light 16h 16m
Length of Day
15h 05m
Waning Gibbous, 88% of the Moon is Illuminated
Jul 25
Waning Gibbous
Jul 29
Last Quarter
Aug 6
New
Aug 14
First Quarter
Aug 20
Full

Hourly Weather History & Observations

Time (MDT) Temp. Dew Point Humidity Pressure Visibility Wind Dir Wind Speed Gust Speed Precip Events Conditions
12:31 AM 60.8 °F 55.4 °F 82% 30.04 in 10.0 mi SSE 21.9 mph - 0.04 in Rain Light Rain
12:51 AM 64.0 °F 51.1 °F 63% 29.94 in 10.0 mi SSE 12.7 mph 23.0 mph 0.04 in   Scattered Clouds
1:51 AM 61.0 °F 53.1 °F 75% 29.98 in 10.0 mi SE 9.2 mph - N/A   Scattered Clouds
2:51 AM 63.0 °F 53.1 °F 70% 30.01 in 10.0 mi East 4.6 mph - N/A   Mostly Cloudy
3:51 AM 62.1 °F 53.1 °F 72% 30.02 in 10.0 mi SW 10.4 mph - N/A   Overcast
4:51 AM 61.0 °F 54.0 °F 78% 30.01 in 10.0 mi WSW 5.8 mph - 0.00 in   Scattered Clouds
5:51 AM 57.9 °F 53.1 °F 84% 30.04 in 10.0 mi Calm Calm - N/A   Clear
6:51 AM 61.0 °F 54.0 °F 78% 30.05 in 10.0 mi West 4.6 mph - N/A   Clear
7:51 AM 64.9 °F 55.9 °F 73% 30.08 in 10.0 mi NNW 12.7 mph - N/A   Clear
8:51 AM 68.0 °F 54.0 °F 61% 30.11 in 10.0 mi North 11.5 mph - N/A   Clear
9:51 AM 70.0 °F 54.0 °F 57% 30.12 in 10.0 mi North 11.5 mph - N/A   Clear
10:51 AM 72.0 °F 53.1 °F 51% 30.12 in 10.0 mi NNW 10.4 mph - N/A   Partly Cloudy
11:51 AM 72.0 °F 52.0 °F 49% 30.14 in 10.0 mi NNW 15.0 mph 21.9 mph N/A   Partly Cloudy
12:51 PM 73.9 °F 52.0 °F 46% 30.13 in 10.0 mi NW 12.7 mph 23.0 mph N/A   Scattered Clouds
1:51 PM 73.0 °F 51.1 °F 46% 30.14 in 10.0 mi North 15.0 mph 20.7 mph N/A   Mostly Cloudy
2:51 PM 73.9 °F 51.1 °F 45% 30.13 in 10.0 mi NNW 13.8 mph 23.0 mph N/A   Mostly Cloudy
3:51 PM 73.9 °F 51.1 °F 45% 30.14 in 10.0 mi NNW 17.3 mph 24.2 mph N/A   Partly Cloudy
4:51 PM 73.0 °F 50.0 °F 44% 30.14 in 10.0 mi North 11.5 mph - N/A   Mostly Cloudy
5:51 PM 72.0 °F 48.0 °F 43% 30.14 in 10.0 mi NNW 13.8 mph - N/A   Partly Cloudy
6:51 PM 70.0 °F 45.0 °F 41% 30.14 in 10.0 mi NNW 13.8 mph - N/A   Clear
7:51 PM 66.0 °F 44.1 °F 45% 30.16 in 10.0 mi NNE 12.7 mph - N/A   Clear
8:51 PM 60.1 °F 43.0 °F 53% 30.18 in 10.0 mi NNE 10.4 mph - N/A   Clear
9:51 PM 57.0 °F 44.1 °F 62% 30.21 in 10.0 mi NE 5.8 mph - N/A   Clear
10:51 PM 55.9 °F 42.1 °F 60% 30.23 in 10.0 mi NE 5.8 mph - N/A   Clear
11:51 PM 55.0 °F 42.1 °F 62% 30.24 in 10.0 mi NE 5.8 mph - N/A   Clear